STARLINK-32038, 60281

Orbit data source: Space-Track

STARLINK-32038, 60281 is a payload satellite owned by SpaceX/Seattle (US) in LEO that was launched on Sun, 28 Jul 2024 UTC via an FALCON 9 launch vehicle from the Air Force Eastern Test Range (AFETR). Payload-class satellites include a variety of spacecraft equipped with specific instruments for various scientific and technological missions. These include communications satellites like Starlink; space stations such as the ISS; scientific satellites like the Hubble; Earth observation satellites from companies like Planet Labs, Umbra, and HawkEye 360; GPS; miniature CubeSats for education and research; and military/defense satellites.

Loading next visibility...
Identifier
60281, 2024-132D
Orbit
LEO
Last TLE update
22 hours ago
Origin
Manufacturer
SpaceX/Seattle
Mission
Operational spacecraft
Bus & Motor
STARLINK V2M, Unknown motor
Mass
730 kg wet, ~700 kg dry
Launch date (UTC)
2024-07-28 (11 months ago)
Launch vehicle
FALCON 9
Launch site
Air Force Eastern Test Range (AFETR)
Object type
Payload
Rocket body
Debris
Shape & HBR
Unknown
Radar Cross Section
Large (>1 m²)

Expand to show TLE details & history

TLE from 22 hours ago
0 STARLINK-32038
1 60281U 24132D   25185.82900660  .00000467  00000-0  27909-4 0  9999
2 60281  53.1590 123.5895 0001279  84.6784 275.4363 15.30192657 53615
Epoch: 2025-07-04T19:53Z
TLE epoch observation values (Epoch: 2025-07-04T19:53:46.17Z)
Latitude
0.00002°
Longitude
-97.92865°
Altitude
476.054 km
Speed
7.629 km/s
True Right ascension
08h 14m 21s
True Declination
0° 00' 00"
Sunlit
Object was in daylight at epoch
Visualization orbit readout
Latitude
-9.94071°
Longitude
-109.67004°
Altitude
478.102 km
Speed
7.627 km/s
Apparent Right ascension
10h 17m 24s
Apparent Declination
-58° 38' 25"
Sunlit
Object is in daylight
Visualization observer readout
Local Sidereal Time
05:42:42
Azimuth
148.018° SSE
Elevation
-23.753°
Doppler factor
1
Orbital elements
Apogee altitude
476.37 km
Perigee altitude
474.617 km
Semi-major axis
6,853.631 km
Eccentricity
0.00013
Inclination
53.159°
RAAN
123.5895°
Arg. of periapsis
84.6784°
True anomaly
Unknown
Mean anomaly
275.4363°
Eccentric anomaly
Unknown
Mean motion
3.82527 °/min
Orbital period
94.11 mins
BSTAR
0.000027909
Loading maneuver chart data...
Loading SW <> Apogee altitude chart data...
Loading historical data...
Loading historical data...
Loading historical data...
Loading historical data...
Loading historical data...
Loading historical data...
Loading historical data...

STARLINK-32038 Visibility forecast

Observer location: undefined°, undefined°

Span
Click to sort rows by Start time (UTC) header in descending order
Start Az.
Max El. time (UTC)
Max El. Az.
Max El.
End time (UTC)
End Az.
5 mins2025-07-05 22:45:16.665Z246.039° WSW2025-07-05 22:47:16.665Z338.537° N42.199°2025-07-05 22:50:16.665Z44.044° NE
4 mins2025-07-06 03:42:16.665Z349.759° N2025-07-06 03:44:16.665Z31.737° NE18.246°2025-07-06 03:46:16.665Z67.464° ENE
5 mins2025-07-06 05:20:16.665Z305.439° NW2025-07-06 05:22:16.665Z198.129° SSW44.456°2025-07-06 05:25:16.665Z135.533° SSE
|